Weather in Frameries

Belgium     50°24′39″N   3°53′43″E
temp.,
°C
wind,
m/s
gust,
m/s
humid.,
%
clouds,
%
prec.,
mm/h
press.,
hPa
HPBL,
m
18 august, thu
thu1823:00+18ene338199 0.1 101352
02:00+17ene2290100 0.1 101326
05:00+16ese229397 0.0 101416
08:00+18ene118213 0.0 101479
11:00+24ne11523 0.0 1014889
14:00+28nw223836 0.0 10132217
17:00+28wnw1233100 0.0 10122107
20:00+23nne585939 0.0 1013228
19 august, fri
fri1923:00+20n2469100 0.0 1014111
02:00+17nw22877 0.0 101525
05:00+15w22925 0.0 101514
08:00+17wsw24889 0.0 1016149
11:00+23wsw34525 0.0 1016944
14:00+27w554089 0.0 10151988
17:00+25w765299 0.0 10151645
20:00+24w575229 0.1 10151203
20 august, sat
sat2023:00+18wsw3858100 0.0 1017288
02:00+15wsw3675100 0.0 1017131
05:00+13sw359388 0.0 1017100
08:00+13sw35890 0.0 1018154
11:00+22w45450 0.0 10181081
14:00+26w44270 0.0 10171877
17:00+26wnw5425100 0.0 10162308
20:00+23wnw5836100 0.0 1017545
21 august, sun
sun2123:00+15n2263100 0.0 101713
02:00+14ssw116999 0.0 101710
05:00+14wsw227894 0.0 101619
08:00+15wsw237398 0.0 1016123
11:00+21w445198 0.0 10161065
14:00+25w343542 0.0 10142264
17:00+23nnw8746100 0.0 10151000
20:00+22n344819 0.1 1016187
22 august, mon
mon2223:00+15n33754 0.0 101738
02:00+13nne11890 0.0 101810
05:00+12se11885 0.0 101810
08:00+14ese1180100 0.0 101950
11:00+22e1146100 0.0 1019784
14:00+27sse1130100 0.0 10181855
17:00+28wnw0225100 0.0 10162512
20:00+24nw113199 0.0 101613